Skip Page Navigation
NASA JPL Caltech
NASA Logo - Jet Propulsion Laboratory + View the NASA Portal
+ Center for Near-Earth Object Studies
JPL Home Earth Solar System Stars & Galaxies Technology
JPL Solar System Dynamics
BODIES ORBITS EPHEMERIDES TOOLS PHYSICAL DATA DISCOVERY FAQ SITE MAP
IMPORTANT: The SSD Announcement email list is now available. Major changes are coming in the near future, including possible hostname and/or URL changes. To be notified of such changes, subscribe to this email list.

Please visit this page for more details.


JPL Small-Body Database Browser
Search: [ help ]  
2835 Ryoma (1982 WF)
Classification: Main-belt Asteroid          SPK-ID: 2002835
Ephemeris | Orbit Diagram | Orbital Elements | Mission Design | Physical Parameters | Discovery Circumstances | Close-Approach Data ]

[ show orbit diagram ]
Orbital Elements at Epoch 2458600.5 (2019-Apr-27.0) TDB
Reference: JPL 32 (heliocentric ecliptic J2000)
 Element Value Uncertainty (1-sigma)   Units 
e .07999817677464298 4.4033e-08  
a 2.746240900993617 1.1505e-08 au
q 2.526546635930175 1.2208e-07 au
i 1.332111912581094 4.8352e-06 deg
node 5.293957630707675 0.00015554 deg
peri 350.0286388689761 0.00015738 deg
M 56.77932529412448 2.4028e-05 deg
tp 2458338.323295534255
(2018-Aug-07.82329553)
0.0001111 TDB
period 1662.288396678692
4.55
1.0446e-05
2.86e-08
d
yr
n .2165689183172379 1.361e-09 deg/d
Q 2.965935166057059 1.2426e-08 au
  Orbit Determination Parameters
   # obs. used (total)      2523  
   data-arc span      31729 days (86.87 yr)  
   first obs. used      1932-12-17  
   last obs. used      2019-10-31  
   planetary ephem.      DE431  
   SB-pert. ephem.      SB431-N16  
   condition code      0  
   norm. resid. RMS      .47538  
   source      ORB  
   producer      Otto Matic  
   solution date      2019-Nov-07 02:20:12  

Additional Information
 Earth MOID = 1.52075 au 
 Jupiter MOID = 2.3889 au 
 T_jup = 3.343 
[ show covariance matrix ]

Ephemeris | Orbit Diagram | Orbital Elements | Mission Design | Physical Parameters | Discovery Circumstances | Close-Approach Data ]

Physical Parameter Table
Parameter Symbol Value Units Sigma Reference Notes
absolute magnitude H 12.1   n/a MPO458857  
diameter diameter 24.230 km 0.172 urn:nasa:pds:neowise_diameters_albedos::2.0[mainbelt] (http://adsabs.harvard.edu/abs/2011ApJ...741...68M)  
rotation period rot_per 18.234 h n/a LCDB (Rev. 2019-January); Warner et al., 2009 Result based on less than full coverage, so that the period may be wrong by 30 percent or so.
Published Reference List:
[Waszczak, A.; Chang, C.-K.; Ofeck, E.O.; Laher, F.; et al. (2015) Astron. J. 150, A75.]
geometric albedo albedo 0.043   0.003 urn:nasa:pds:neowise_diameters_albedos::2.0[mainbelt] (http://adsabs.harvard.edu/abs/2011ApJ...741...68M)  

2835 Ryoma (1982 WF)          Discovered 1982-Nov-20 by Seki, T. at Geisei
Reference: DISCOVERY.DBLast Updated: 2003-08-29

[ show close-approach data ]
Alternate Designations
 1982 WF = 1932 YB = 1941 WB = 1961 CB1 = 1963 QC = 1972 NT = 1975 EX3 = 1977 QF5 = 1977 RY7 = 1979 AA = 1980 GP = 1989 GQ8 
Ephemeris | Orbit Diagram | Orbital Elements | Mission Design | Physical Parameters | Discovery Circumstances | Close-Approach Data ]
ABOUT SSD CREDITS/AWARDS PRIVACY/COPYRIGHT GLOSSARY LINKS
FirstGov
(server date/time)  
NASA Home Page
Site Manager:   Ryan S. Park
Webmaster  Alan B. Chamberlin